RH
56 55 57 62 64 64 61 59 57 53 46 39 34 31 29 29 27 25 23 24 25 26 28 30 31 32 33 33 33 34 34 35 36 39 44 55 65 74 80 86 91 94 95 95 95 94 92 89 89 91 93 95 97 97 96 94 93 92 91 93 94 95 97 97 97 97 96 95 95 95 97 97 97 97 98 98 98 98 98 98 98 98 99 98 98 97
57 58 60 65 66 66 63 59 57 55 50 43 37 34 33 32 30 28 26 27 30 33 35 36 38 39 40 40 41 41 42 43 44 48 55 67 77 85 90 93 94 95 95 95 94 93 88 84 83 85 89 95 97 95 93 90 87 85 84 87 90 93 96 97 97 95 91 86 84 86 93 94 94 95 97 97 97 98 98 98 98 97 97 97 98 98
60 63 63 64 66 68 65 60 56 53 50 45 41 39 38 36 35 33 33 34 36 38 39 40 41 43 45 46 47 49 51 52 55 60 71 81 88 92 94 94 94 94 95 94 93 91 87 88 86 85 90 95 94 90 85 81 79 79 82 85 89 92 96 95 92 85 77 72 69 70 77 80 84 87 88 93 93 93 95 94 95 96 97 97 97 97
65 68 68 65 67 68 66 61 57 52 48 45 43 42 42 42 41 40 41 42 43 43 42 42 43 45 48 51 53 56 60 63 68 75 84 89 92 93 93 93 93 92 94 92 91 89 85 87 86 87 93 94 90 83 76 74 75 80 86 91 94 95 95 90 83 75 68 64 62 62 64 67 71 75 78 83 85 87 89 89 93 96 98 98 98 99
64 68 71 71 71 70 64 62 58 53 48 47 46 46 47 47 47 47 47 49 50 49 48 47 47 50 52 56 60 65 70 75 81 84 83 82 81 81 85 86 85 86 89 87 86 85 84 85 88 91 95 92 86 79 74 72 74 79 88 94 95 93 89 83 76 71 66 62 59 59 60 62 66 70 76 80 84 88 89 91 94 96 98 98 99 99
63 68 71 76 77 74 67 64 60 56 53 52 52 52 53 53 54 54 55 57 58 58 58 58 58 59 60 63 68 74 78 81 81 78 72 67 65 66 70 70 72 75 80 82 84 86 86 90 94 96 94 90 85 79 75 72 70 71 78 83 83 81 78 77 75 72 67 62 60 60 61 65 68 73 78 82 86 90 91 93 94 96 97 98 99 99
66 68 71 76 77 76 73 68 64 62 62 63 62 61 59 60 60 61 63 66 68 69 69 71 72 71 68 68 70 73 75 75 72 68 64 64 66 68 69 70 72 76 80 86 90 92 90 91 92 92 90 86 84 81 77 70 64 61 62 66 67 68 70 74 76 74 70 65 65 66 69 72 75 78 83 87 90 92 93 94 94 96 98 98 98 98
70 69 71 76 79 80 76 71 67 66 69 74 75 73 69 67 66 67 68 72 75 78 80 83 83 80 75 70 67 65 64 64 63 61 60 63 67 71 74 75 78 82 87 92 93 93 90 88 86 85 85 84 83 80 72 63 58 56 60 64 67 70 74 78 78 76 71 68 68 72 76 80 82 85 87 91 93 94 94 94 93 93 95 96 97 97
76 75 74 82 85 83 76 72 69 68 74 79 82 83 79 75 73 73 74 76 79 83 88 89 88 84 78 71 66 61 58 59 59 60 59 64 69 74 76 79 82 87 91 93 93 92 89 87 85 83 83 83 80 74 63 55 53 57 66 71 74 75 76 75 73 70 66 65 67 71 77 82 85 87 88 90 93 94 95 95 93 92 91 93 94 96
80 82 82 86 88 87 83 79 75 75 79 81 83 84 82 79 78 79 80 83 85 87 91 91 89 87 82 77 73 68 64 60 59 59 60 65 71 76 81 85 88 90 91 91 89 86 81 75 70 67 68 69 67 62 55 52 53 56 60 61 62 62 61 60 59 57 54 55 60 66 73 77 80 82 83 84 87 91 95 95 95 93 92 92 93 95
86 86 87 88 89 89 89 87 84 82 83 82 81 80 79 80 81 84 87 91 92 91 91 90 90 89 87 83 81 78 75 69 65 63 63 68 74 80 85 89 91 91 87 85 80 74 67 60 54 51 51 52 52 52 51 51 51 52 53 53 52 52 52 52 51 49 47 50 56 63 69 73 75 77 78 78 80 84 88 92 94 94 94 93 92 92
92 91 91 92 93 93 93 91 89 86 85 83 81 80 78 81 85 89 92 93 93 92 90 89 90 90 89 86 85 85 85 81 78 75 73 76 81 86 90 92 90 87 82 76 70 64 58 53 51 49 48 47 47 48 49 50 51 53 54 56 57 59 59 60 61 61 60 61 65 69 72 75 77 80 81 80 78 78 79 84 89 93 95 93 91 89
94 94 95 95 95 94 94 93 92 91 90 87 85 84 83 85 89 93 93 93 93 92 91 91 91 91 90 88 87 88 90 89 88 87 85 87 90 92 93 93 89 83 75 68 62 57 53 51 50 49 48 48 48 49 52 57 61 63 66 69 72 74 77 80 82 82 82 82 81 81 81 83 85 87 89 88 87 84 78 79 82 87 93 93 92 90
96 96 96 95 95 95 94 93 93 93 92 88 86 85 87 90 92 93 94 93 93 93 93 94 93 92 90 88 88 90 93 92 92 91 91 92 93 94 93 89 82 73 66 60 56 53 51 51 51 51 50 50 51 53 57 62 68 74 80 83 85 87 89 89 89 90 92 91 90 90 89 89 90 91 91 92 92 90 85 83 81 83 88 91 92 91
96 96 96 96 95 95 94 94 94 93 90 87 86 88 89 92 93 93 94 94 94 94 94 94 94 93 92 90 89 91 94 93 93 94 94 94 93 91 85 76 68 62 57 54 53 52 52 53 55 56 57 58 60 63 68 73 78 83 88 89 90 91 90 90 91 91 92 91 91 90 90 91 92 92 92 93 93 93 92 89 85 84 85 90 91 90
96 96 96 96 95 95 94 93 91 89 88 86 86 87 89 92 93 94 95 95 95 94 95 95 94 94 93 91 91 92 94 93 93 93 93 90 84 77 70 64 60 58 56 56 57 57 57 59 61 63 66 69 74 78 83 86 90 92 92 91 91 91 90 90 90 89 89 89 89 89 91 91 91 91 91 92 93 93 93 93 91 90 89 90 90 88
96 96 95 95 94 92 85 83 84 87 89 89 89 90 93 94 95 95 95 95 95 95 95 95 95 95 95 94 93 93 94 93 93 92 88 79 72 67 64 64 63 62 62 63 64 65 65 66 68 71 76 81 85 89 91 93 93 93 93 91 91 90 90 89 89 88 87 87 88 89 90 90 89 88 88 89 90 92 93 94 93 93 91 89 88 85
95 95 94 95 93 90 84 85 86 89 91 91 92 92 93 94 95 95 94 94 94 95 95 95 95 95 95 95 94 94 94 93 92 87 81 77 72 68 66 67 68 68 68 69 69 69 70 72 75 79 84 87 89 91 93 93 93 92 92 91 90 88 88 88 88 89 90 91 91 91 92 91 91 90 89 89 91 93 94 94 94 93 93 91 87 85
93 92 92 93 92 90 90 90 88 87 89 92 93 94 95 95 95 95 94 94 94 94 94 95 95 94 94 94 93 92 91 89 86 83 81 81 77 72 68 70 71 72 72 72 72 72 74 77 81 84 86 83 84 85 87 88 87 87 86 84 85 86 89 90 91 91 91 91 91 91 91 92 93 93 93 93 94 94 93 93 93 93 93 91 89 88
92 89 88 87 88 90 92 90 88 87 91 93 94 94 94 94 94 94 94 94 94 94 94 93 93 93 93 93 92 90 87 86 85 83 83 83 80 76 73 74 76 76 76 75 75 76 78 80 82 83 83 80 80 79 79 78 78 78 78 78 81 85 90 91 92 92 92 93 93 93 92 93 94 94 94 93 93 92 93 93 93 93 92 90 89 88
91 88 83 83 86 89 90 85 84 86 93 94 94 94 94 94 94 94 94 94 94 93 94 94 93 93 93 93 91 89 88 87 86 85 85 85 83 80 78 79 80 81 81 80 79 79 81 81 80 79 77 75 73 72 71 72 73 73 74 79 86 92 92 92 92 93 93 93 93 93 93 93 92 92 92 92 93 93 94 94 93 93 91 89 88 87
86 83 79 81 84 85 84 83 86 91 95 94 93 93 93 93 94 94 93 93 93 93 93 93 93 93 92 92 92 91 89 88 87 86 87 89 88 85 82 84 85 86 87 86 84 82 81 80 77 75 72 70 68 67 67 68 69 71 76 85 90 92 92 92 91 91 91 92 92 93 93 92 92 92 92 93 94 94 94 94 93 92 91 90 86 84
80 80 79 78 80 82 86 90 93 95 94 93 93 93 94 93 93 93 93 93 93 93 93 93 92 91 92 92 92 91 89 88 87 88 90 92 92 91 87 88 90 90 90 89 87 85 83 80 76 72 68 66 64 64 64 66 69 74 82 88 91 90 90 87 85 83 83 84 86 89 91 92 93 93 93 93 93 93 93 93 93 93 93 93 89 84
77 78 78 79 83 87 92 93 94 94 94 94 93 93 93 92 91 91 92 92 93 93 93 92 92 92 93 93 92 91 88 85 85 87 91 91 92 91 90 91 91 91 91 89 88 86 84 79 73 69 66 64 63 64 65 67 69 72 78 84 85 85 82 80 79 80 83 86 87 88 89 91 92 93 93 93 93 93 93 92 93 94 95 95 96 95
81 83 85 87 90 93 94 94 94 94 94 92 91 90 89 89 90 91 92 92 92 93 93 93 93 93 93 93 92 89 85 83 84 88 91 91 91 91 90 91 92 92 91 89 88 87 85 79 72 68 65 64 64 65 67 68 69 71 74 75 76 76 77 79 82 85 89 91 91 91 91 91 92 93 92 93 93 92 91 89 90 92 94 95 96 96
89 92 93 94 95 95 95 94 92 89 85 79 76 77 82 88 91 92 92 93 93 93 92 93 93 93 92 92 91 89 85 83 85 89 91 91 91 91 90 91 91 91 91 89 88 87 86 82 75 69 66 65 65 66 67 68 70 72 73 75 76 78 80 85 88 91 92 92 92 92 92 92 93 93 93 93 93 92 91 89 88 90 93 94 95 95
87 90 93 94 94 94 92 88 82 73 64 59 60 68 83 90 92 92 92 92 92 91 92 92 92 93 92 92 92 90 88 87 89 91 91 91 92 92 91 90 91 91 91 90 89 88 88 85 78 71 68 67 67 67 67 69 71 72 74 75 77 79 82 86 90 92 92 93 93 93 93 92 92 93 93 93 93 92 92 90 88 87 91 93 94 95
82 87 92 93 92 88 81 72 63 55 49 48 55 68 85 90 92 91 89 89 89 89 91 92 93 93 93 92 92 91 90 90 91 91 91 91 92 91 90 90 90 91 91 91 89 87 85 82 77 73 70 69 68 67 67 68 70 72 73 75 77 79 83 86 90 92 93 93 93 93 93 92 92 93 93 93 93 92 92 91 87 84 84 88 92 94
84 90 94 91 86 77 68 59 53 49 46 47 54 65 78 85 87 87 86 86 86 88 90 92 93 93 93 93 92 92 91 91 91 91 91 91 91 91 90 90 90 91 91 92 90 87 81 77 75 74 73 71 69 67 67 69 71 72 74 76 78 81 84 88 91 92 93 93 93 93 93 93 93 93 93 93 92 92 92 92 88 83 77 80 84 89
87 93 92 86 77 68 60 55 51 48 47 50 56 64 73 79 82 83 84 86 87 89 91 92 93 93 93 92 92 92 92 91 91 91 91 91 91 91 90 91 91 91 91 92 92 90 85 76 72 72 75 74 72 70 70 72 74 76 77 78 79 81 85 89 91 92 92 92 92 93 93 93 93 93 92 92 92 93 92 92 90 86 81 78 78 81
91 93 89 79 69 61 56 51 48 47 48 53 60 67 74 78 81 84 86 88 90 91 92 92 93 93 93 92 92 92 93 91 89 89 91 91 91 91 91 91 91 91 91 92 91 91 90 83 74 70 74 77 77 76 76 79 81 81 81 81 81 82 85 89 90 91 91 91 92 92 93 92 91 90 88 89 91 93 93 93 92 91 89 84 80 78
93 91 84 73 64 57 52 48 46 46 49 55 61 68 74 79 84 87 90 91 92 92 92 92 92 92 93 92 92 92 93 88 86 86 91 91 91 91 91 92 91 91 91 91 91 91 91 90 83 76 77 80 82 82 82 85 86 85 84 84 84 84 86 89 90 91 91 91 92 93 93 91 89 86 84 85 88 92 93 93 93 93 93 91 88 85
92 87 78 68 60 54 50 46 45 46 51 56 61 66 70 76 83 89 92 92 92 92 92 92 91 90 89 89 91 91 90 84 83 85 91 91 91 91 92 92 92 91 90 91 91 92 92 93 90 87 85 85 85 85 86 87 87 85 84 85 86 86 87 90 91 91 91 91 92 92 92 91 89 87 86 87 89 91 92 92 92 93 93 94 94 93
90 83 74 65 58 52 47 45 45 47 52 57 60 63 66 72 79 85 89 89 88 87 86 85 84 84 85 87 90 90 87 81 81 85 91 91 91 91 92 92 92 92 91 91 91 92 92 92 92 91 90 87 86 87 87 87 85 83 83 86 88 89 90 92 92 92 92 91 91 91 90 90 90 90 91 92 92 91 89 88 87 87 89 92 93 94
87 80 71 63 56 50 45 44 45 48 52 57 61 64 68 73 76 78 80 79 78 76 75 73 74 77 82 87 90 90 87 82 83 87 92 91 90 91 92 92 92 91 91 91 91 92 92 92 92 92 92 91 88 86 85 83 81 80 81 85 88 90 92 93 94 93 92 91 90 90 90 90 90 90 91 92 92 91 89 86 83 81 81 85 87 89
85 77 68 60 53 47 43 45 47 51 54 59 64 70 74 76 76 76 75 74 73 72 71 70 70 73 79 85 89 91 89 86 87 90 92 91 90 90 91 90 89 88 89 91 91 91 92 92 92 92 93 93 91 87 82 76 75 77 80 83 87 90 92 93 94 94 93 92 91 90 90 89 88 87 86 86 87 87 86 85 83 81 78 79 80 81
81 74 66 57 50 44 44 47 50 54 59 64 70 75 78 78 77 76 76 76 75 74 71 69 68 70 75 81 86 89 90 90 91 92 92 92 91 91 90 88 86 85 88 90 91 91 91 92 92 92 93 93 93 91 87 75 72 75 79 82 85 88 92 93 94 94 94 93 92 91 90 89 87 85 82 81 81 81 82 84 85 85 83 80 78 78
78 71 64 54 47 44 46 49 52 57 63 69 74 77 78 77 77 77 78 78 77 75 72 69 67 68 70 76 81 86 90 91 92 92 92 91 90 89 90 88 87 86 87 89 90 91 91 91 91 92 93 91 91 90 87 80 78 79 81 82 83 86 91 93 94 94 94 93 92 90 88 87 85 83 81 80 79 79 80 83 85 87 87 85 82 80
75 69 61 50 45 44 46 49 52 57 64 70 74 76 76 75 76 77 79 80 79 76 72 69 68 68 69 74 79 85 91 91 91 91 90 89 89 89 90 90 88 86 84 86 88 89 90 90 91 92 92 91 87 82 76 78 80 82 84 83 82 83 88 92 94 94 94 93 91 88 84 83 82 81 80 79 79 80 82 84 85 86 85 84 82 80
75 69 58 48 44 44 46 49 52 56 61 67 70 72 71 71 72 75 79 80 79 76 71 68 68 68 70 75 82 88 92 92 91 90 89 90 90 90 90 88 86 84 81 81 84 87 90 90 90 91 91 92 88 81 73 73 76 82 88 89 88 86 84 89 92 93 93 93 90 87 83 81 80 80 80 80 80 82 84 86 86 85 84 82 81 79
75 69 54 46 43 44 46 48 51 55 59 62 64 65 64 65 68 73 78 79 77 73 69 67 67 68 69 75 83 90 92 91 91 90 90 90 90 88 85 81 77 75 73 75 78 81 86 88 89 90 89 86 80 73 66 70 78 87 92 93 92 88 85 88 91 93 93 91 89 87 85 82 81 81 81 80 81 82 85 88 88 86 84 83 82 80
77 68 52 46 44 44 46 48 51 54 57 59 60 60 59 62 68 74 79 79 76 72 68 67 68 69 70 73 80 87 91 91 91 91 91 89 87 84 78 71 66 63 64 67 69 72 75 80 83 83 80 72 66 64 67 77 85 91 93 93 91 87 84 88 91 93 93 92 90 88 85 83 81 80 80 81 81 83 85 89 90 89 87 85 84 84
79 66 51 47 45 46 47 49 51 53 56 58 59 60 60 65 70 76 80 78 75 71 69 69 72 74 75 76 81 86 90 91 91 90 89 87 84 78 70 62 56 55 57 62 64 64 64 65 65 64 59 57 60 68 79 87 91 91 90 91 92 92 92 91 91 91 92 92 92 90 88 84 81 78 77 78 80 83 86 89 91 92 91 90 89 88
78 64 52 49 48 48 48 49 51 54 57 59 61 62 64 68 73 77 79 77 75 73 71 72 74 76 79 82 86 90 90 90 89 88 86 83 78 72 62 53 49 48 50 55 55 52 46 43 42 42 45 57 70 82 91 92 91 89 86 88 90 91 91 92 92 92 91 91 91 91 90 87 82 78 74 74 76 79 84 88 90 91 91 92 91 91
76 62 55 52 51 50 49 50 52 55 58 60 61 63 65 68 72 76 78 78 77 76 75 75 76 79 81 86 89 90 89 87 85 82 80 77 73 65 55 47 43 41 41 42 42 40 36 34 35 41 54 70 83 91 93 93 91 88 85 87 90 92 92 93 93 93 93 92 91 90 90 88 85 80 74 71 71 74 78 84 87 89 91 92 92 91
73 63 57 55 53 51 50 52 54 57 59 60 60 61 62 66 70 74 79 81 82 81 78 77 78 80 84 87 89 89 87 84 81 77 75 72 67 58 48 41 37 36 35 34 34 34 33 34 40 51 68 81 89 93 92 92 90 89 87 89 91 93 93 93 93 93 93 92 91 90 90 89 86 81 76 72 71 71 74 79 83 86 89 90 90 88
71 63 60 57 55 53 53 55 57 59 60 60 60 60 61 64 69 75 81 85 85 84 81 78 78 80 83 85 88 89 88 87 83 78 74 69 62 52 41 36 33 32 32 33 32 32 32 37 49 65 83 89 90 89 88 88 89 90 91 92 93 93 93 93 93 93 93 93 92 91 90 89 87 83 79 76 73 72 73 76 79 82 84 85 84 84
69 64 61 59 57 56 56 58 60 61 62 61 60 59 60 64 71 78 85 87 88 86 83 79 78 80 84 87 89 89 89 89 87 82 75 68 59 49 38 33 30 29 29 31 30 30 33 47 64 81 92 92 89 85 82 85 88 91 92 92 93 93 93 93 92 92 91 92 92 91 91 90 90 88 84 80 77 75 75 76 77 78 80 81 82 82
68 65 63 61 60 60 60 62 63 64 63 62 60 59 58 63 71 80 88 89 89 87 84 80 79 81 88 90 90 90 89 89 86 81 75 69 60 50 40 34 29 26 25 25 25 27 35 62 80 90 92 89 88 88 87 89 91 92 93 93 93 93 93 92 90 89 89 90 91 92 92 91 91 90 89 86 83 80 79 79 79 79 80 80 80 80
70 68 66 65 64 64 65 67 67 66 64 62 61 59 58 62 70 79 87 89 90 88 85 80 78 81 87 89 90 90 90 88 86 82 76 72 64 55 45 38 32 28 25 23 21 21 27 58 78 87 86 84 85 88 89 91 92 92 92 93 93 93 93 90 88 86 86 88 90 91 92 91 91 90 90 89 86 83 80 79 79 79 79 79 78 77
73 71 70 69 68 69 70 71 70 68 65 64 62 61 60 62 68 77 85 88 89 89 87 82 79 79 82 87 89 89 89 88 87 85 80 76 69 61 53 46 41 37 33 28 24 20 18 32 47 62 71 76 82 88 91 92 92 91 91 92 93 93 91 88 85 84 85 86 88 91 92 91 90 90 90 90 89 87 82 79 78 78 80 81 81 80
Wind_Speed
30 31 31 31 31 31 32 33 34 35 36 37 37 36 34 33 32 32 31 31 30 30 29 28 27 26 25 24 22 22 21 20 20 20 21 21 22 22 23 24 24 25 25 26 26 27 27 26 25 25 24 26 26 26 26 26 27 28 29 29 29 29 29 27 26 25 25 26 26 26 26 26 26 26 26 26 26 25 25 24 24 24 24 25 27 28
31 31 31 30 30 31 33 34 34 35 36 37 37 36 34 33 33 32 32 31 30 29 28 27 26 25 24 24 23 22 21 21 21 22 22 23 24 25 25 26 26 26 26 26 27 27 27 26 25 25 25 26 26 25 25 26 27 28 28 29 29 29 28 26 24 23 23 23 24 24 24 25 25 26 26 25 25 25 24 24 23 23 24 24 24 25
32 32 31 31 31 32 34 35 35 36 36 36 36 35 34 33 33 32 32 31 30 28 27 27 26 25 24 24 23 22 22 22 22 23 24 25 26 26 27 27 27 27 27 27 27 28 28 28 27 26 26 25 24 23 24 25 27 28 28 28 27 26 24 22 20 19 21 22 23 24 24 25 25 25 25 25 25 25 25 25 24 24 23 23 22 22
31 31 32 33 33 33 34 35 36 36 36 35 34 34 33 32 32 32 31 30 29 28 28 27 27 26 26 25 24 23 23 24 24 25 26 26 27 28 28 28 28 28 28 28 29 29 28 27 26 25 24 23 22 22 23 25 26 27 27 25 22 18 16 16 16 18 20 22 24 25 25 25 26 26 26 26 26 25 26 25 24 23 23 22 22 21
32 31 32 33 34 34 35 35 35 35 35 34 33 33 32 32 32 32 31 30 29 29 29 29 28 28 27 27 26 25 25 26 26 26 27 27 28 28 28 27 27 27 28 28 28 27 26 24 23 22 21 20 20 22 23 25 27 27 25 20 15 13 14 16 18 20 22 24 24 25 25 25 25 25 24 25 24 24 24 24 23 23 22 22 21 20
33 32 33 33 34 34 35 34 34 34 34 33 33 33 32 32 32 31 31 29 29 29 29 29 29 29 29 28 28 27 28 28 28 29 29 29 28 26 25 25 24 24 24 24 24 23 22 21 20 20 19 20 21 23 25 27 28 28 25 20 18 18 19 20 22 24 25 26 26 25 25 24 24 24 23 23 23 23 23 23 22 22 21 21 20 20
34 33 33 33 34 33 32 32 32 32 32 32 33 33 33 32 32 31 30 29 29 29 29 29 28 28 29 29 29 29 30 31 31 31 31 30 27 25 23 21 20 20 20 21 21 21 20 20 21 21 22 23 24 25 27 28 29 29 28 27 26 25 24 23 24 26 26 26 26 26 25 25 25 24 24 24 24 23 23 23 22 21 21 21 20 20
34 34 33 33 32 32 31 31 31 30 30 31 32 33 33 33 32 31 30 29 29 28 28 28 28 28 29 30 31 32 33 33 33 33 33 31 28 24 22 20 18 18 18 20 21 21 22 23 24 25 26 26 26 27 27 29 30 30 29 29 28 27 25 25 25 26 26 26 26 26 26 26 26 25 25 25 25 24 24 23 22 22 21 21 21 20
33 34 33 31 30 30 32 32 31 30 29 30 30 32 33 33 33 32 31 30 29 28 27 27 28 30 32 34 35 35 35 35 34 34 33 31 28 25 22 20 19 19 20 21 22 23 24 25 27 27 28 27 26 27 29 30 30 29 28 27 26 25 25 24 25 25 25 26 27 27 27 27 27 26 26 26 26 25 24 23 22 22 22 22 21 20
31 31 31 30 29 29 30 31 31 30 29 30 30 31 31 32 33 33 32 31 29 28 28 28 30 34 37 38 38 38 37 37 35 34 33 31 28 25 23 21 21 21 22 23 25 26 27 28 29 29 29 29 29 30 33 33 32 30 28 26 26 25 25 25 25 25 26 27 27 28 28 27 27 27 27 27 27 26 25 24 23 22 22 22 21 21
30 30 30 31 30 29 28 29 30 30 30 31 31 31 30 30 30 31 31 30 30 30 30 31 33 36 39 40 40 39 38 37 36 34 33 31 28 26 23 22 22 23 24 26 27 29 30 31 32 32 32 33 33 34 35 36 35 33 31 29 27 27 27 27 27 27 28 28 28 28 28 28 28 28 28 28 28 27 27 25 24 23 22 22 21 21
31 31 30 30 30 29 29 29 31 31 32 32 32 33 32 29 27 27 29 30 31 33 34 36 36 36 37 39 39 38 37 35 34 34 33 31 28 26 24 24 24 25 27 28 30 31 32 32 33 34 34 35 36 36 35 35 34 33 31 30 28 27 27 28 28 28 28 28 29 29 29 29 29 28 28 28 28 29 28 27 26 24 23 22 22 21
31 31 30 30 30 29 29 30 31 32 32 31 31 31 31 29 28 28 30 32 34 36 37 37 37 36 36 37 37 37 34 32 31 31 31 29 27 25 24 25 26 28 30 31 32 33 33 34 34 35 35 35 35 35 33 31 29 28 27 26 26 26 26 27 27 27 27 28 28 29 30 29 28 27 27 27 28 28 29 29 28 26 24 23 23 22
31 30 30 30 29 29 29 29 29 30 30 30 30 30 30 30 30 32 34 36 37 36 35 35 35 35 36 35 35 33 30 29 28 28 28 26 25 24 25 27 28 30 31 32 33 34 34 34 34 35 35 34 34 32 31 29 27 26 25 26 26 26 26 26 27 27 27 27 28 29 29 28 27 27 27 27 27 28 28 28 28 27 25 24 24 23
29 29 28 28 28 28 28 28 29 30 30 29 29 30 31 32 33 35 36 37 37 36 34 33 33 33 33 32 31 30 28 27 26 26 26 25 25 25 27 29 30 31 32 32 33 33 34 33 33 33 32 32 31 29 28 26 25 25 25 25 25 26 26 27 27 28 28 29 29 30 30 29 28 28 27 27 27 27 27 27 27 27 26 25 24 24
27 27 27 28 29 29 29 29 30 30 29 29 29 30 32 34 35 35 34 35 36 35 33 31 31 31 31 30 28 27 27 26 25 25 26 27 28 28 29 31 31 32 32 32 31 32 32 31 31 30 30 29 27 26 25 24 23 23 23 24 25 26 27 28 29 30 31 31 31 31 31 31 30 30 29 28 28 27 26 26 26 26 26 26 25 25
27 27 29 30 31 31 32 30 29 29 28 29 30 31 33 34 35 35 35 35 34 33 31 29 28 28 28 28 27 27 27 26 26 27 30 33 34 33 32 31 30 31 30 30 29 29 29 29 29 28 27 26 26 25 24 23 22 22 23 25 26 28 29 31 31 32 32 32 32 31 31 31 30 30 30 30 29 28 27 26 26 26 26 26 26 26
29 30 30 30 31 31 30 28 28 28 29 30 31 32 33 33 34 34 34 34 33 32 31 30 28 28 28 29 29 28 27 27 29 32 35 36 36 35 33 30 29 28 28 28 28 28 28 27 27 26 26 26 26 26 26 25 25 26 27 28 29 31 32 32 31 30 29 29 28 28 28 28 27 27 27 27 28 28 28 27 27 26 27 27 27 27
31 31 30 30 29 29 28 27 28 29 30 31 32 33 34 34 34 33 33 32 32 32 31 31 30 29 29 30 30 29 29 30 33 35 36 35 35 34 32 29 27 27 27 27 27 27 26 26 25 25 26 27 27 27 28 28 29 30 31 32 31 31 30 28 27 26 25 25 25 24 24 24 23 23 23 23 24 25 26 27 27 28 28 28 28 27
29 29 27 27 27 27 28 27 28 28 30 31 32 33 34 33 33 32 32 32 32 32 32 32 32 31 31 31 32 33 33 34 34 34 33 32 32 32 30 27 26 26 27 27 27 26 25 25 26 26 27 28 28 28 29 30 31 32 32 31 30 27 25 24 23 23 23 23 23 23 22 21 20 20 19 20 21 22 23 25 26 28 28 29 29 28
27 27 25 23 24 26 28 28 28 28 29 30 31 32 32 31 31 31 32 32 33 34 34 33 33 33 34 35 35 35 34 32 31 31 31 31 31 30 28 26 25 26 26 27 26 26 26 27 27 28 28 29 29 29 29 30 30 30 29 26 24 23 22 22 22 23 24 24 24 24 23 22 21 20 20 19 20 20 21 22 24 25 27 28 29 29
26 25 23 22 22 25 27 28 28 28 28 28 28 28 28 29 31 32 33 34 34 34 34 34 34 34 34 33 32 31 30 29 28 28 29 29 29 29 27 25 24 25 26 27 27 27 28 28 29 29 29 29 28 28 28 27 26 25 23 22 21 21 21 21 22 23 23 24 24 24 23 23 22 21 20 20 20 20 20 21 22 22 23 25 26 28
22 23 22 22 23 25 27 28 29 27 26 25 25 26 28 30 32 34 34 34 34 34 34 34 34 33 32 30 29 28 28 27 27 27 26 26 26 27 26 24 24 25 26 27 28 29 29 29 29 29 28 27 26 25 25 23 22 20 20 20 20 20 20 21 21 22 22 23 23 23 23 22 22 21 21 20 20 20 20 21 20 19 19 20 22 24
22 22 23 24 25 27 28 28 27 25 24 24 26 29 31 33 34 33 33 32 32 33 33 33 32 31 30 28 27 27 28 28 27 26 25 25 25 26 25 24 25 26 27 29 29 30 30 29 28 27 26 26 25 24 23 21 20 19 18 19 18 18 18 18 18 18 19 20 21 21 21 21 21 21 20 20 19 20 21 20 18 16 14 15 16 17
23 24 25 26 27 28 28 25 23 23 25 27 30 32 33 32 32 31 30 30 30 30 31 31 31 30 29 28 28 28 28 28 27 26 24 24 25 25 25 25 25 26 28 30 30 29 29 29 28 27 26 25 25 24 23 21 20 18 17 16 15 15 14 15 15 16 18 19 19 19 20 20 20 20 20 19 19 20 20 20 18 16 14 14 13 11
24 25 26 26 26 25 24 23 24 26 29 31 32 31 30 29 28 28 29 29 29 29 29 30 30 30 29 28 26 27 28 28 27 25 23 23 24 25 26 26 26 27 29 30 30 28 28 28 27 27 26 26 25 24 23 21 19 17 16 15 14 14 15 16 17 18 19 19 19 19 19 19 20 19 19 18 18 19 20 20 19 17 16 15 14 11
24 25 25 25 24 23 23 25 28 31 32 32 31 28 26 25 26 27 27 27 28 28 28 29 29 28 26 24 24 25 27 27 26 23 21 22 23 25 26 27 28 28 28 29 28 28 27 27 27 27 26 26 25 24 22 20 18 17 16 15 15 16 17 18 19 20 20 20 20 20 20 19 19 19 18 18 18 18 19 20 20 19 17 16 15 13
25 24 23 22 22 23 26 29 31 33 33 31 28 25 22 22 23 25 26 27 27 27 27 28 27 24 22 22 24 26 27 26 23 22 21 21 23 25 27 27 27 27 27 27 28 28 27 26 26 26 26 26 25 24 22 20 19 18 18 18 18 19 19 20 21 21 21 21 20 20 20 19 19 18 18 17 17 18 19 19 20 20 19 17 15 14
26 24 22 21 22 25 28 30 32 32 31 29 26 22 21 21 22 23 25 25 25 26 26 26 25 23 23 24 26 27 26 23 22 21 22 23 24 26 26 26 26 25 25 26 27 29 28 26 26 26 26 26 26 25 23 22 22 21 21 21 21 21 21 22 22 22 21 21 20 19 19 19 18 17 17 16 16 16 17 18 19 19 20 19 17 15
25 23 21 21 24 27 29 31 31 30 28 25 22 20 19 19 20 21 22 23 23 24 24 25 25 25 26 27 27 25 24 22 22 22 23 23 24 25 25 25 24 23 24 25 26 28 28 28 27 26 27 27 27 26 25 25 25 25 24 23 22 22 22 22 22 22 21 20 19 18 18 18 17 16 15 14 14 14 15 16 16 18 18 19 18 17
24 21 21 23 26 28 30 31 30 29 25 22 19 17 17 17 18 19 20 20 21 21 22 23 24 25 26 26 25 23 23 24 24 24 23 23 24 24 24 23 23 22 22 23 24 24 26 29 29 29 28 29 29 28 27 26 26 26 26 25 24 22 22 22 22 21 20 19 19 18 17 16 15 14 13 12 12 12 12 12 13 15 16 17 17 18
23 21 22 24 27 29 30 30 29 26 22 19 17 15 15 16 17 18 19 19 19 19 19 20 22 24 25 25 24 24 24 26 26 25 23 22 22 22 22 22 23 23 23 22 22 22 23 26 30 32 31 30 29 28 27 26 26 26 26 26 24 23 22 22 22 21 21 20 19 17 16 14 13 12 11 11 11 10 10 10 11 13 13 14 15 16
22 21 22 25 27 29 30 29 26 23 20 18 16 15 15 16 17 18 19 19 18 18 18 20 22 24 26 26 26 26 26 26 25 22 20 20 21 21 21 22 23 23 24 23 23 22 23 25 29 31 31 31 29 28 27 26 25 26 26 25 25 24 23 23 22 22 21 20 19 17 15 14 12 11 11 11 11 11 10 10 11 12 12 11 11 12
20 20 23 25 28 29 29 27 24 21 18 17 16 16 16 17 18 18 19 18 18 19 20 21 23 24 25 25 25 25 25 24 22 19 17 18 19 21 21 22 22 23 24 24 24 24 24 25 26 29 31 31 29 27 26 25 25 25 25 24 24 24 24 24 23 22 21 20 18 17 15 14 13 13 12 12 13 13 12 12 12 11 11 10 10 10
19 21 23 26 28 28 27 24 21 19 17 16 16 16 16 17 18 18 18 19 19 20 20 21 21 21 22 22 22 23 23 22 19 17 15 16 18 19 20 20 21 22 23 24 24 24 25 25 26 27 29 30 30 28 26 26 25 25 24 23 23 24 24 24 24 23 22 20 18 17 16 15 14 14 14 14 14 14 14 14 13 12 11 10 11 11
20 22 24 26 27 26 24 22 20 18 16 16 16 16 17 17 18 18 18 19 19 20 20 20 20 20 19 19 19 20 20 19 17 15 14 14 14 16 18 19 21 22 23 23 24 25 26 27 27 27 27 28 29 29 28 26 25 24 23 23 23 23 23 24 24 24 23 21 20 18 17 16 16 15 15 15 15 15 15 15 14 14 13 12 12 13
22 24 25 26 25 24 22 20 19 17 16 16 16 16 17 18 18 18 18 18 19 20 20 21 20 19 18 17 17 17 17 17 16 14 13 12 13 14 17 20 23 24 23 23 23 24 25 27 28 27 26 25 25 27 28 28 26 25 24 23 23 23 23 24 24 24 24 23 21 19 18 17 17 16 16 16 16 15 15 15 14 14 13 13 13 13
25 25 25 24 23 21 20 19 18 17 17 17 17 17 17 18 18 18 18 18 19 20 21 21 20 19 18 16 15 15 15 15 14 13 13 13 15 17 19 22 25 26 25 24 23 23 24 25 26 26 26 26 26 27 29 29 28 26 25 23 22 22 23 23 24 24 23 22 21 19 18 18 18 17 17 17 16 16 15 15 14 13 12 11 11 11
26 25 24 22 20 19 18 18 17 17 17 17 17 17 18 18 18 18 18 19 20 21 21 21 20 19 17 15 14 13 13 13 13 13 14 16 17 19 21 23 25 26 26 25 24 23 22 23 23 24 25 27 28 29 28 27 26 25 25 23 22 21 21 22 23 22 22 21 20 20 19 19 18 18 18 17 17 17 16 15 14 12 11 10 8 8
27 24 21 19 18 17 17 17 17 16 16 17 17 18 18 18 18 18 19 19 20 21 21 20 19 17 15 13 12 12 12 13 14 15 16 18 19 21 23 24 25 26 26 26 25 24 23 23 24 24 24 25 27 29 27 25 24 23 23 24 23 22 21 21 21 21 20 20 19 20 20 20 20 19 18 18 17 17 16 15 14 12 11 9 8 7
25 21 18 16 16 17 17 16 16 16 16 16 17 17 18 18 19 19 20 20 21 21 20 19 18 15 13 11 11 11 12 13 15 16 18 19 21 23 24 25 25 25 25 25 24 23 23 24 24 25 25 26 27 27 26 24 22 20 21 22 23 23 22 21 20 19 19 19 19 19 20 20 20 20 19 18 17 16 15 15 14 12 11 10 9 8
22 18 15 15 15 16 16 16 15 15 15 15 16 17 18 18 19 20 20 21 21 21 20 19 17 15 13 11 10 11 13 15 16 18 19 21 23 25 26 25 24 23 22 22 22 22 22 23 24 25 25 25 26 25 23 20 18 17 18 19 21 22 22 21 20 18 18 19 19 20 20 20 21 20 19 18 17 15 14 14 13 12 11 10 10 10
20 15 13 13 14 15 15 15 14 14 14 15 16 17 18 18 19 19 19 20 20 20 19 19 18 16 15 13 12 13 14 15 17 19 21 23 25 26 25 24 21 20 18 18 19 20 20 20 21 22 22 22 21 20 19 18 17 16 17 18 20 22 23 22 20 19 18 18 19 20 20 21 21 20 19 18 17 15 14 13 12 12 11 11 11 11
17 13 11 12 13 14 15 15 14 14 14 15 16 17 18 18 18 18 18 18 18 19 19 19 18 17 15 14 14 15 16 17 18 20 22 24 25 25 24 21 18 16 15 15 16 17 17 18 18 18 17 16 16 15 15 16 16 16 17 18 19 20 21 21 19 18 18 18 19 20 21 22 22 21 20 18 17 15 14 13 12 11 11 11 11 12
14 10 10 11 12 13 14 14 14 14 15 15 16 17 18 18 17 16 16 16 17 18 19 19 18 16 15 14 15 16 18 19 20 21 23 24 24 24 22 18 15 13 12 12 12 14 15 16 16 15 13 12 12 12 13 14 15 16 17 18 19 19 19 17 17 17 17 18 19 21 22 23 23 22 21 19 17 15 14 13 13 12 12 12 13 13
11 9 9 10 11 12 13 14 14 15 15 16 17 17 17 17 15 14 14 15 16 18 18 18 17 15 13 14 15 17 19 21 22 23 24 24 24 22 20 17 14 11 10 10 11 12 14 15 14 13 11 10 9 9 10 11 13 15 17 18 19 18 17 15 15 15 17 19 20 22 23 23 23 22 21 19 17 15 13 13 13 13 13 14 15 15
9 9 9 10 11 12 13 13 14 14 15 16 17 17 17 15 14 13 13 14 16 17 18 17 15 14 13 14 16 18 20 22 24 25 25 24 23 21 18 16 13 11 10 10 11 12 12 12 11 10 8 8 8 9 9 10 12 14 16 17 18 17 15 14 14 15 17 19 21 22 23 23 23 22 21 19 17 15 13 12 12 13 14 15 16 16
9 9 9 10 11 12 12 13 13 14 15 16 17 17 16 14 13 12 13 14 16 17 17 16 14 13 14 15 16 18 19 21 24 25 25 24 22 20 18 16 14 12 10 10 11 11 10 9 7 6 6 7 9 11 12 12 13 14 15 16 15 15 14 14 15 16 18 19 20 21 22 22 21 21 20 19 17 15 13 12 11 12 13 14 15 15
9 9 9 10 11 11 12 12 13 14 15 16 16 16 16 14 12 12 12 14 15 16 16 15 14 14 15 15 16 17 19 21 23 24 24 23 21 19 17 16 14 13 12 11 11 10 7 5 4 4 5 7 9 11 13 14 14 14 14 14 14 14 14 15 16 17 19 19 20 20 20 20 19 19 19 18 17 16 14 12 11 11 11 12 13 13
9 9 10 11 11 12 12 13 13 14 15 16 16 16 16 14 12 11 12 13 15 16 16 16 15 14 14 15 15 16 18 20 22 23 23 22 20 19 17 16 15 14 13 12 11 10 8 5 3 3 4 6 8 10 11 12 13 13 13 13 13 13 14 15 17 18 19 20 20 19 19 18 18 18 17 17 17 16 15 13 12 11 11 11 11 12
9 10 11 12 12 13 13 13 14 14 15 16 16 16 16 15 13 12 12 13 15 16 17 16 16 15 15 15 15 16 18 19 21 22 22 21 20 18 18 17 16 16 15 15 14 13 11 8 6 5 3 4 5 7 9 10 12 13 14 13 13 13 14 16 18 19 20 20 20 19 19 18 17 17 17 17 17 17 16 15 14 13 13 13 12 12
Wind_Direction
310 312 314 314 313 312 311 313 313 313 314 317 319 321 322 323 323 325 326 328 329 330 329 328 327 325 324 323 322 321 320 321 321 322 321 320 317 316 315 314 313 313 313 312 312 311 311 309 307 304 301 301 302 302 303 303 302 301 300 298 296 295 294 293 292 292 293 294 296 296 296 296 295 294 292 289 287 287 287 287 287 286 285 281 277 274
310 311 311 311 310 309 309 311 312 312 313 315 317 320 322 323 324 326 328 330 331 331 331 329 327 325 324 323 323 323 323 323 324 324 322 320 318 316 315 313 312 310 309 309 309 309 309 308 305 301 298 299 300 302 302 302 302 302 301 300 298 296 295 294 294 295 299 303 305 305 304 303 301 299 296 293 290 287 286 285 284 284 285 284 283 281
309 309 309 309 308 307 307 309 310 311 312 314 316 319 321 323 324 326 329 331 332 332 331 330 329 327 325 324 325 325 327 328 328 325 322 319 317 314 312 311 309 307 305 304 305 306 308 308 304 300 297 298 299 301 302 303 305 306 305 301 297 294 291 292 296 303 310 313 315 315 313 311 309 307 304 299 295 292 289 286 284 284 284 285 287 287
306 305 306 306 306 305 305 307 309 311 312 314 317 320 321 323 324 326 328 330 331 333 333 333 332 330 328 327 328 329 329 330 328 324 320 317 314 311 309 307 306 304 302 301 302 304 306 306 303 299 298 300 302 304 306 309 311 311 308 303 299 296 297 303 311 317 319 319 318 317 315 314 313 312 310 307 304 300 296 292 289 287 285 285 285 285
302 302 303 304 304 304 305 307 309 311 314 316 318 320 322 323 324 325 327 329 331 333 335 335 335 333 332 330 330 329 328 326 323 320 318 317 314 311 309 306 304 303 302 302 303 304 304 303 302 300 301 303 306 308 310 313 315 315 312 309 310 318 324 325 324 323 321 319 318 316 314 313 312 312 311 310 309 306 302 297 293 289 287 286 285 284
301 301 302 302 302 303 305 307 310 313 315 317 319 320 321 322 323 324 325 327 329 331 334 335 335 334 333 331 329 326 323 320 318 318 319 321 319 316 313 309 306 305 305 306 306 305 303 302 301 300 301 303 306 308 311 313 315 314 313 315 321 327 327 324 321 319 317 316 316 315 313 312 311 310 310 310 310 308 306 302 297 293 290 288 287 286
300 301 302 302 302 304 306 308 311 314 316 317 318 319 320 321 322 322 323 325 327 329 330 331 331 331 330 329 326 323 320 317 316 318 321 323 323 321 317 314 311 310 310 309 308 305 301 299 297 297 298 300 303 307 310 313 315 315 314 315 318 320 319 316 313 311 311 312 312 312 312 310 309 307 307 307 307 307 306 304 301 298 294 291 289 287
300 302 303 304 306 307 308 310 312 315 316 315 316 317 318 319 320 321 322 323 324 325 326 326 325 325 324 325 325 323 321 319 319 320 322 324 324 322 319 316 315 315 313 311 307 304 302 300 299 298 298 299 301 305 310 315 317 317 316 316 316 315 312 308 305 305 306 308 309 310 309 307 306 304 303 303 303 303 303 303 302 301 298 294 291 289
301 303 306 307 308 309 310 311 313 315 316 314 313 313 315 317 318 319 320 321 322 322 321 320 319 319 321 324 326 327 325 323 322 322 323 323 323 322 320 317 316 315 313 311 308 307 307 307 306 305 304 302 304 307 312 316 317 317 314 313 311 308 304 301 301 302 304 305 306 306 305 304 302 301 300 300 300 300 300 300 301 301 300 297 294 292
303 304 306 308 308 308 309 310 312 314 315 313 312 311 313 315 317 318 318 318 319 319 317 315 314 316 320 323 326 327 327 325 324 323 323 322 322 321 319 317 314 313 311 309 308 308 309 310 311 311 309 308 308 310 312 315 316 315 312 309 306 304 303 303 304 304 304 304 303 303 302 301 300 299 298 297 297 297 299 299 300 300 300 298 296 294
305 305 306 307 309 309 308 308 310 312 313 312 312 312 313 315 316 317 315 314 314 315 315 314 314 316 318 321 323 325 325 325 324 324 323 322 321 319 316 313 310 308 306 305 305 306 308 310 311 313 313 313 312 312 313 314 314 313 312 311 308 306 305 306 306 305 304 303 302 301 300 299 299 298 297 295 294 294 296 297 298 298 298 297 296 295
305 306 305 306 307 308 308 307 308 309 310 311 312 313 315 316 316 313 310 308 309 312 315 316 316 317 317 319 320 322 323 323 322 322 322 321 319 315 310 307 305 304 303 303 304 305 308 311 314 315 317 318 318 318 317 315 313 312 311 310 308 307 306 305 305 305 304 302 300 299 298 298 299 300 298 296 294 292 291 292 294 296 296 296 296 295
304 304 305 305 305 305 305 306 306 307 308 309 310 311 312 314 314 311 308 306 308 312 315 316 316 316 317 318 319 320 320 319 318 318 316 314 310 306 303 302 303 304 304 305 307 309 312 315 318 319 321 321 321 320 319 317 314 312 309 308 306 305 304 304 304 305 304 301 298 297 297 298 299 300 300 299 297 293 289 288 289 291 292 293 294 294
302 303 303 303 302 302 303 303 304 304 305 307 309 311 313 314 314 312 311 309 310 312 313 311 311 312 314 318 320 320 318 314 311 309 306 302 300 299 301 304 305 307 308 310 312 314 317 319 321 321 320 319 318 317 315 313 310 308 306 305 304 303 304 304 304 304 303 299 296 295 296 297 298 298 298 299 298 295 291 288 286 287 288 290 291 292
301 301 300 299 299 299 299 300 300 301 304 308 312 315 317 315 315 314 311 308 309 310 308 306 306 308 312 316 319 319 315 308 304 300 298 296 297 300 306 310 311 312 313 315 316 318 320 321 320 319 318 317 315 312 309 307 304 303 302 302 302 303 303 304 303 301 299 297 294 293 294 295 295 294 294 295 295 295 294 291 288 286 285 286 288 290
299 299 297 297 296 295 295 296 298 302 306 312 316 318 318 316 315 313 308 306 306 305 303 302 304 307 311 316 319 318 312 305 301 300 302 303 305 309 314 317 318 318 318 318 318 319 320 319 318 317 315 313 310 306 302 299 299 299 299 301 303 303 303 301 300 298 296 296 296 295 294 294 293 292 291 290 290 291 292 292 289 286 283 283 284 286
296 295 294 294 294 294 296 299 302 306 310 314 317 318 317 314 312 310 307 305 303 302 300 300 303 306 310 315 318 317 313 309 308 310 313 314 314 316 319 321 321 320 319 318 317 317 317 316 315 313 311 308 304 300 297 296 297 300 303 304 304 303 302 301 299 298 297 297 297 298 297 296 295 292 290 288 287 287 287 287 286 285 282 280 280 281
292 292 293 293 294 297 301 305 309 312 314 314 316 317 315 312 310 308 306 305 303 302 301 301 302 304 307 311 314 316 316 314 315 318 319 318 318 319 321 321 320 318 316 314 313 313 313 312 311 309 305 302 299 297 296 298 302 305 306 306 305 303 302 301 301 301 302 302 302 302 301 300 298 296 292 289 287 285 284 284 283 282 281 278 277 278
292 293 295 296 298 301 304 308 311 314 314 314 314 312 311 310 310 309 309 309 308 307 306 305 305 307 309 312 313 315 315 316 319 320 320 318 317 319 321 320 317 314 311 310 310 310 310 308 305 302 299 298 297 297 299 301 303 305 305 304 304 304 304 305 306 306 306 306 305 305 305 304 302 299 296 293 291 288 286 284 282 279 277 275 274 275
293 294 295 298 302 304 305 308 311 313 314 313 311 308 307 309 311 312 313 314 313 312 311 309 309 310 312 312 312 312 314 317 320 321 319 316 315 316 318 317 314 311 308 307 307 307 306 303 300 298 297 296 297 298 300 301 302 302 303 303 304 306 308 308 308 307 307 307 307 309 311 311 311 309 305 302 298 295 292 288 284 280 277 274 272 272
292 294 296 301 305 306 306 309 312 313 313 311 309 307 308 312 314 314 314 314 313 311 309 308 307 308 310 310 310 312 316 320 322 322 319 315 313 314 316 315 312 309 307 306 306 305 303 301 300 299 299 299 300 301 302 303 304 304 305 307 309 310 310 308 305 305 306 307 309 311 315 319 320 319 316 313 309 305 300 295 290 286 282 278 274 271
293 296 301 305 306 306 306 309 311 312 311 310 309 311 314 316 315 313 311 310 309 307 305 304 305 307 308 309 310 314 318 322 323 322 318 313 310 311 314 314 312 309 307 306 306 306 305 305 304 304 305 306 308 309 310 311 311 311 312 313 313 311 308 305 302 300 301 302 305 308 311 314 316 316 315 314 312 310 306 301 297 292 288 284 279 274
295 297 302 305 306 306 306 307 309 310 312 313 315 316 315 313 310 309 308 307 306 305 304 305 306 308 308 309 311 314 318 321 322 320 316 310 308 310 314 315 313 310 308 308 309 310 310 310 310 312 314 316 318 320 321 322 321 320 319 316 313 310 306 303 300 298 298 299 301 304 305 306 307 308 308 309 310 309 307 302 298 295 293 291 285 278
299 301 304 305 306 305 305 305 307 311 314 315 315 313 310 309 308 307 307 306 304 304 306 308 309 309 308 309 312 315 317 319 320 319 315 310 308 310 314 315 313 311 310 310 312 313 315 315 316 318 322 324 327 329 330 330 328 326 323 319 315 313 311 310 309 309 308 309 308 306 304 304 303 303 303 304 306 306 303 297 293 292 299 302 296 285
304 305 306 305 303 301 299 300 303 307 309 310 310 309 308 308 307 306 305 304 304 306 308 310 309 308 308 310 312 314 315 317 319 319 317 313 310 311 313 313 313 312 311 313 315 318 319 319 321 324 327 329 331 332 333 332 331 330 328 326 325 325 327 329 330 327 324 321 318 314 310 306 304 303 301 302 303 303 299 292 290 296 310 321 320 308
303 302 301 298 294 292 290 291 296 301 305 307 308 307 307 307 305 304 302 303 305 308 310 310 308 306 305 306 309 312 315 318 321 322 320 314 310 309 311 312 313 314 314 317 319 321 321 321 323 326 329 330 332 333 334 335 335 335 335 336 338 341 343 343 340 335 331 328 325 321 316 312 308 305 303 302 302 301 297 291 289 295 310 323 329 324
300 298 294 290 287 288 292 297 302 306 308 309 309 308 308 306 304 303 303 304 306 308 309 307 304 302 303 306 310 314 317 320 322 323 320 313 308 307 310 313 316 317 318 320 322 322 321 321 323 326 328 330 332 334 336 338 340 343 344 346 348 350 349 346 342 338 334 330 327 323 320 315 312 308 305 303 303 301 298 292 287 289 300 315 324 324
300 296 291 289 290 296 304 309 311 312 312 311 311 310 308 306 304 304 304 305 306 308 308 305 303 303 308 313 315 316 318 320 321 321 318 312 309 309 312 317 320 322 322 322 323 323 322 322 324 327 329 331 333 336 339 344 348 350 351 352 353 352 351 348 344 340 336 333 329 325 322 318 315 311 308 305 304 303 302 297 290 286 289 300 312 318
297 293 290 293 301 308 313 314 314 313 312 311 311 310 308 305 303 303 303 304 306 307 307 306 307 310 313 315 315 316 317 318 319 318 316 313 311 313 317 321 325 327 327 325 325 326 325 325 327 328 329 331 334 338 343 348 352 353 353 353 353 353 351 348 346 343 339 337 334 329 325 322 319 315 312 309 307 307 307 304 297 288 284 287 293 299
294 292 294 303 312 316 317 316 314 312 311 310 310 309 307 305 302 301 301 303 304 305 305 305 307 309 311 313 314 314 314 315 317 317 317 315 314 316 321 325 329 332 332 330 328 326 325 327 329 330 330 332 335 339 343 347 350 351 351 351 352 352 352 350 349 347 344 342 339 335 330 326 322 319 316 314 313 312 312 311 306 297 289 285 283 284
292 293 302 312 317 318 316 314 312 310 309 309 309 308 308 306 304 303 302 302 301 300 299 299 301 304 307 310 312 311 309 311 315 319 320 317 316 319 324 328 331 333 335 333 328 324 323 325 328 331 332 332 334 337 340 343 344 345 345 346 348 351 353 354 352 350 347 344 341 339 336 332 327 323 319 317 315 315 316 318 316 311 302 293 285 281
290 297 310 317 318 317 314 311 310 309 308 307 307 308 310 312 312 310 306 301 296 294 294 297 301 304 307 308 307 305 305 309 315 321 322 319 318 322 328 330 332 333 333 332 328 322 318 318 323 328 330 331 332 334 337 338 339 339 340 341 344 349 354 355 354 350 347 345 344 343 343 340 336 331 326 321 318 318 320 327 328 323 315 304 294 286
291 303 314 317 316 313 311 310 309 308 307 306 305 308 312 317 319 318 313 306 300 299 302 306 308 308 309 307 306 304 305 309 316 322 323 321 321 324 328 331 331 331 330 329 327 323 318 315 318 322 325 328 329 331 333 334 335 336 338 339 343 347 353 355 354 351 348 347 347 348 348 348 346 341 336 331 327 326 327 331 332 330 324 313 302 292
295 307 313 313 311 310 309 309 310 310 309 307 307 310 315 320 323 323 321 317 315 315 315 315 313 311 310 309 307 307 307 311 317 322 323 323 323 325 328 329 328 327 326 325 325 323 320 317 316 318 320 324 327 329 330 330 333 335 339 341 343 346 351 354 354 352 350 349 349 350 352 352 351 348 344 340 337 334 332 331 329 325 318 309 297 288
298 307 309 309 309 309 310 311 312 313 312 312 313 315 319 322 323 323 323 323 323 323 322 320 316 313 310 309 309 309 310 313 318 321 323 325 325 326 327 325 323 321 321 322 322 322 319 318 316 317 318 320 323 326 329 330 333 336 341 344 345 347 350 353 354 353 352 350 349 349 350 350 349 347 345 343 340 337 334 330 325 319 310 300 289 281
300 303 305 307 309 310 312 313 315 316 316 317 318 319 321 322 322 322 322 323 323 324 323 320 317 314 311 310 310 310 312 314 317 320 323 324 325 325 323 318 316 316 318 319 320 320 319 318 317 317 317 317 319 322 327 332 336 340 343 346 348 349 353 356 357 356 354 352 349 347 345 344 343 341 341 339 338 336 332 329 323 316 308 298 288 281
298 301 304 307 310 312 313 315 316 317 318 318 319 319 320 321 322 322 322 322 323 324 323 321 318 314 311 309 309 310 312 315 318 322 323 320 316 314 313 312 313 315 316 315 315 315 316 316 316 317 316 315 315 316 321 329 336 341 344 346 348 351 356 360 0 359 355 352 349 344 341 338 337 336 336 336 334 333 331 328 324 319 310 301 291 283
297 299 303 307 311 314 316 316 316 316 315 316 316 317 318 320 320 321 322 322 323 324 323 321 318 314 311 309 309 310 313 318 322 324 321 314 310 310 311 312 314 315 313 310 309 308 310 312 313 314 314 313 312 314 318 324 330 336 340 344 347 352 357 1 2 360 356 351 346 341 337 335 333 333 334 334 334 333 333 332 331 328 321 310 299 289
296 298 302 307 313 317 318 317 316 314 313 312 313 314 315 317 318 319 320 322 323 323 323 321 319 316 313 311 312 315 319 324 325 322 317 313 313 314 315 314 313 312 309 305 302 300 301 303 305 307 308 309 310 313 318 323 327 332 337 342 347 353 359 3 2 359 354 349 344 340 337 335 334 335 336 337 337 337 337 338 339 339 335 328 318 305
293 295 301 309 317 321 322 319 316 313 311 310 310 311 313 314 315 317 318 320 322 323 323 322 320 317 315 315 318 322 326 327 323 319 316 315 315 316 316 314 311 308 304 301 297 295 293 294 296 298 301 304 306 310 315 322 328 333 337 340 343 348 357 1 0 356 350 347 344 343 341 339 339 339 339 340 340 339 338 338 339 341 341 339 336 331
289 292 302 314 322 326 324 321 317 313 311 310 310 312 313 314 316 317 318 320 322 323 324 323 322 319 315 316 322 329 331 328 323 319 317 316 317 317 316 314 311 306 302 298 295 293 290 290 291 294 298 302 305 309 314 321 330 337 341 343 343 346 352 355 354 350 347 346 347 347 346 345 344 344 343 341 339 337 335 333 333 334 335 336 336 336
284 290 304 318 326 327 324 321 318 315 313 312 312 313 314 316 317 318 319 320 322 324 326 326 326 323 320 320 325 330 330 326 322 318 317 317 317 318 317 316 312 307 303 300 297 295 293 292 293 296 300 304 307 310 316 327 338 345 348 348 347 346 346 347 346 345 344 346 347 348 348 348 348 347 344 340 337 332 329 326 325 325 326 327 328 329
280 290 309 323 328 327 324 321 319 316 315 313 313 314 316 317 317 318 319 320 323 325 328 329 329 326 323 324 328 328 325 320 318 317 317 318 319 320 320 318 315 311 308 305 303 302 302 301 300 302 305 308 311 314 322 333 343 348 350 350 348 344 339 337 338 341 343 344 344 345 346 346 346 345 342 338 333 326 321 317 315 315 316 318 318 319
277 294 314 325 328 326 324 321 319 316 315 314 314 315 316 317 316 316 318 320 323 327 329 330 328 324 321 325 329 327 320 316 315 316 318 320 322 323 323 321 319 317 314 312 311 310 311 310 309 310 312 313 316 322 331 339 343 344 345 346 344 340 334 332 335 338 340 340 340 340 342 343 343 341 339 335 330 323 316 309 305 304 305 306 307 308
278 299 316 324 325 323 321 319 318 316 315 314 314 315 315 315 315 315 318 322 326 329 330 329 326 322 321 325 325 322 317 315 316 318 320 323 325 326 326 326 325 325 323 322 320 319 318 316 315 315 317 319 324 332 341 343 341 339 339 340 339 335 331 333 337 340 340 338 337 338 339 340 339 338 337 335 331 325 315 306 300 297 297 297 298 301
284 304 314 319 320 320 319 319 318 315 314 314 315 315 314 314 314 317 321 325 327 329 330 328 325 321 321 322 320 318 317 318 319 321 324 326 328 329 329 330 332 334 335 335 332 326 321 317 316 317 320 322 328 338 346 343 338 336 335 335 332 330 331 337 342 343 340 338 337 338 338 338 338 337 336 335 334 328 319 309 301 296 295 295 297 300
293 304 309 312 315 317 318 318 316 314 313 314 314 315 315 315 315 318 322 325 327 327 328 327 324 322 321 321 321 320 320 320 321 323 326 329 331 331 332 335 338 340 343 345 343 337 327 318 315 317 321 324 329 332 333 333 334 334 333 330 329 330 336 343 345 343 340 339 339 339 339 339 338 337 336 335 334 331 325 316 308 302 300 300 302 305
296 301 304 307 311 314 316 315 314 312 312 313 314 315 316 316 317 319 321 323 324 325 326 325 324 324 326 327 326 324 322 321 321 323 328 331 333 334 335 338 340 343 346 351 353 350 338 324 316 316 320 326 330 329 327 328 330 331 330 330 333 338 343 345 343 341 339 340 341 342 342 341 339 338 336 334 333 332 332 327 320 314 310 309 310 312
293 295 296 300 305 309 312 312 311 311 311 312 313 314 316 317 318 318 318 318 319 321 322 323 324 326 329 330 329 325 322 320 320 324 329 334 336 336 337 339 341 342 345 352 0 7 7 350 330 322 322 328 330 329 326 328 330 333 336 342 347 349 347 345 343 342 342 343 344 345 344 342 340 337 335 333 332 334 336 337 334 329 324 321 320 319
287 288 290 293 298 303 306 308 309 310 310 310 311 312 315 317 318 317 315 313 315 317 320 321 322 325 327 327 325 322 320 319 321 325 331 337 339 340 341 342 343 344 346 349 359 16 39 53 51 6 335 330 327 325 326 330 336 343 350 356 358 356 351 348 347 347 348 349 349 348 346 344 341 338 336 335 334 335 338 342 344 342 339 335 331 328
282 283 285 289 293 297 301 303 306 307 309 309 309 310 313 315 316 315 312 311 312 315 318 322 323 323 322 320 318 317 318 319 322 327 333 339 342 343 345 347 349 350 350 351 355 3 18 37 59 69 41 343 322 325 337 345 352 357 2 6 6 1 356 354 353 354 355 355 355 353 350 346 344 342 341 339 338 339 341 344 349 350 349 345 341 336